Weather History for KBMQ - July, 2012

Change the Weather History Date:

Tuesday, July 10, 2012

  Actual Average Record
Temperature  
Mean Temperature 82 °F -  
Max Temperature 91 °F 90 °F 99 °F (2013)
Min Temperature 73 °F 70 °F 70 °F (2004)
Cooling Degree Days 16    
Growing Degree Days 32 (Base 50)    
Moisture  
Dew Point 70 °F    
Average Humidity 76    
Maximum Humidity 94    
Minimum Humidity 46    
Precipitation  
Precipitation 0.12 in - - ()
Sea Level Pressure  
Sea Level Pressure 29.93 in    
Wind  
Wind Speed 4 mph (WSW)    
Max Wind Speed 10 mph    
Max Gust Speed -    
Visibility 9 miles    
Events Rain , Thunderstorm    
Averages and records for this station are not official NWS values.
T = Trace of Precipitation, MM = Missing Value Source: NWS Daily Summary

Daily Weather History Graph

Daily Weather History Graph

Search for Another Location

Airport or City:

Trip Planner

Search our weather history database for the weather conditions in past years. The results will help you decide how hot, cold, wet, or windy it might be!

Date:

Astronomy

Jul. 10, 2012 Rise Set
Actual Time 6:38 AM CDT 8:38 PM CDT
Civil Twilight 6:10 AM CDT 9:05 PM CDT
Nautical Twilight 5:37 AM CDT 9:38 PM CDT
Astronomical Twilight 5:02 AM CDT 10:14 PM CDT
Moon 12:27 AM CDT (7/10) 1:30 PM CDT (7/10)
Length of Visible Light 14h 55m
Length of Day
14h 00m
Waning Gibbous, 54% of the Moon is Illuminated
Jul 10
Waning Gibbous
Jul 10
Last Quarter
Jul 18
New
Jul 26
First Quarter
Aug 1
Full

Hourly Weather History & Observations

Time (CDT) Temp. Heat Index Dew Point Humidity Pressure Visibility Wind Dir Wind Speed Gust Speed Precip Events Conditions
12:53 AM 73.9 °F - 71.1 °F 91% 29.94 in 10.0 mi North 3.5 mph - N/A   Clear
1:53 AM 73.9 °F - 71.1 °F 91% 29.92 in 10.0 mi West 3.5 mph - N/A   Scattered Clouds
2:53 AM 73.0 °F - 71.1 °F 93% 29.90 in 10.0 mi SSW 4.6 mph - N/A   Clear
3:32 AM 73.0 °F - 71.1 °F 93% 29.96 in 9.0 mi SW 3.5 mph - N/A   Scattered Clouds
3:44 AM 73.0 °F - 71.1 °F 93% 29.96 in 9.0 mi SW 3.5 mph - N/A   Mostly Cloudy
3:53 AM 73.0 °F - 71.1 °F 93% 29.91 in 8.0 mi Variable 3.5 mph - N/A   Overcast
4:16 AM 73.0 °F - 71.1 °F 93% 29.97 in 9.0 mi Calm Calm - N/A   Scattered Clouds
4:53 AM 73.0 °F - 70.0 °F 90% 29.91 in 9.0 mi Calm Calm - N/A   Clear
5:06 AM 73.0 °F - 70.0 °F 90% 29.97 in 8.0 mi West 3.5 mph - N/A   Scattered Clouds
5:53 AM 73.0 °F - 70.0 °F 90% 29.93 in 9.0 mi Calm Calm - N/A   Clear
6:53 AM 73.0 °F - 70.0 °F 90% 29.93 in 7.0 mi WNW 3.5 mph - N/A   Clear
7:53 AM 73.9 °F - 71.1 °F 91% 29.95 in 9.0 mi NW 4.6 mph - N/A   Clear
8:53 AM 78.1 °F - 68.0 °F 71% 29.94 in 10.0 mi WNW 5.8 mph - N/A   Clear
9:53 AM 80.1 °F 82.3 °F 66.9 °F 64% 29.95 in 10.0 mi Variable 5.8 mph - N/A   Clear
10:53 AM 82.9 °F 85.4 °F 66.9 °F 58% 29.95 in 10.0 mi Variable 3.5 mph - N/A   Mostly Cloudy
11:53 AM 84.9 °F 87.6 °F 66.9 °F 55% 29.94 in 10.0 mi Variable 4.6 mph - N/A   Mostly Cloudy
12:53 PM 86.0 °F 89.4 °F 68.0 °F 55% 29.92 in 10.0 mi SW 4.6 mph - N/A   Overcast
1:41 PM 89.1 °F 91.3 °F 66.0 °F 46% 29.96 in 10.0 mi Variable 5.8 mph - N/A Thunderstorm Scattered Clouds
1:53 PM 90.0 °F 93.6 °F 68.0 °F 48% 29.89 in 10.0 mi Calm Calm - N/A Thunderstorm Scattered Clouds
2:19 PM 87.1 °F 92.0 °F 70.0 °F 57% 29.94 in 10.0 mi West 10.4 mph - N/A   Mostly Cloudy
2:53 PM 89.1 °F 91.3 °F 66.0 °F 46% 29.88 in 10.0 mi NNE 6.9 mph - N/A   Mostly Cloudy
3:53 PM 89.1 °F 92.9 °F 68.0 °F 50% 29.85 in 10.0 mi NW 8.1 mph - N/A   Mostly Cloudy
4:06 PM 89.1 °F 92.9 °F 68.0 °F 50% 29.90 in 10.0 mi WNW 8.1 mph - N/A Thunderstorm Scattered Clouds
4:21 PM 88.0 °F 91.4 °F 68.0 °F 51% 29.90 in 10.0 mi Variable 3.5 mph - N/A   Mostly Cloudy
4:53 PM 86.0 °F 90.7 °F 70.0 °F 59% 29.85 in 10.0 mi SSE 5.8 mph - N/A   Overcast
5:29 PM 84.0 °F 88.4 °F 70.0 °F 63% 29.91 in 10.0 mi West 4.6 mph - N/A Thunderstorm Thunderstorm
5:53 PM 79.0 °F - 70.0 °F 74% 29.86 in 10.0 mi SW 6.9 mph - N/A   Overcast
6:06 PM 79.0 °F - 71.1 °F 77% 29.91 in 10.0 mi WSW 5.8 mph - N/A Thunderstorm Scattered Clouds
6:21 PM 80.1 °F 83.6 °F 71.1 °F 74% 29.92 in 10.0 mi SSW 3.5 mph - N/A   Clear
6:53 PM 82.0 °F 86.3 °F 71.1 °F 69% 29.87 in 10.0 mi SW 4.6 mph - N/A   Clear
7:13 PM 81.0 °F 84.9 °F 71.1 °F 72% 29.92 in 10.0 mi Calm Calm - N/A Thunderstorm Partly Cloudy
7:49 PM 82.4 °F 87.2 °F 71.6 °F 70% 29.94 in 10.0 mi West 4.6 mph - N/A   Mostly Cloudy
7:53 PM 81.0 °F 85.2 °F 72.0 °F 74% 29.89 in 10.0 mi West 9.2 mph - N/A   Mostly Cloudy
8:18 PM 79.0 °F - 73.0 °F 82% 29.94 in 10.0 mi NW 6.9 mph - N/A Thunderstorm Mostly Cloudy
8:33 PM 78.1 °F - 70.0 °F 76% 29.95 in 10.0 mi NW 4.6 mph - N/A   Mostly Cloudy
8:53 PM 75.0 °F - 71.1 °F 87% 29.92 in 2.0 mi Variable 3.5 mph - 0.11 in Rain Heavy Rain
9:00 PM 75.0 °F - 71.1 °F 87% 29.97 in 1.5 mi East 6.9 mph - 0.01 in Rain Light Rain
9:03 PM 75.0 °F - 71.1 °F 87% 29.97 in 3.0 mi East 8.1 mph - 0.01 in Rain Light Rain
9:09 PM 75.9 °F - 72.0 °F 87% 29.97 in 10.0 mi East 3.5 mph - 0.01 in Thunderstorm Overcast
9:14 PM 75.9 °F - 72.0 °F 87% 29.97 in 10.0 mi SE 3.5 mph - 0.01 in Thunderstorm Overcast
9:38 PM 75.0 °F - 72.0 °F 90% 29.98 in 10.0 mi SSE 3.5 mph - 0.01 in   Mostly Cloudy
9:53 PM 75.0 °F - 72.0 °F 90% 29.93 in 9.0 mi South 3.5 mph - 0.01 in Rain Light Rain
10:53 PM 75.0 °F - 73.0 °F 94% 29.94 in 8.0 mi Calm Calm - 0.00 in   Scattered Clouds
11:53 PM 75.0 °F - 72.0 °F 90% 29.93 in 10.0 mi Calm Calm - N/A   Clear